Location: Mizzole
(45.4833°N, 11.0500°E)
Time: 13:32:08
(UTC+00:00)

CENTAUR R/B - Pass Details

Date: 21 October 2019
Orbit: 781 x 1407 km, 63.4° (Epoch: 07 November)

Event Time Altitude Azimuth Distance (km) Brightness Sun altitude
Rises 16:45:50 0° 151° (SSE) 3,414 5.2 -5.1°
Reaches altitude 10° 16:50:17 10° 118° (ESE) 2,609 4.3 -5.9°
Maximum altitude 16:52:00 11° 101° (E) 2,575 4.1 -6.2°
Drops below altitude 10° 16:53:47 10° 84° (E) 2,726 4.2 -6.5°
Enters shadow 16:55:24 - 72° (ENE) 3,003 4.4 -6.8°
